Radiation Dose at Monitoring Post of Fukushima Daini Nuclear Power Station
Date,Time,MP-1(microSv/h),MP-2(microSv/h),MP-3(microSv/h),MP-4(microSv/h),MP-5(microSv/h),MP-6(microSv/h),MP-7(microSv/h),Wind Direction,Wind Velocity(m/s),Rain
2015/03/29,00:00,0.552,0.342,0.582,0.537,0.562,0.259,0.232,west,1.8,No
2015/03/29,00:10,0.552,0.342,0.583,0.537,0.561,0.258,0.234,west-northwest,1.4,No
2015/03/29,00:20,0.555,0.342,0.581,0.539,0.562,0.259,0.233,west-northwest,1.5,No
2015/03/29,00:30,0.554,0.343,0.583,0.538,0.561,0.259,0.233,west-northwest,1.8,No
2015/03/29,00:40,0.553,0.341,0.582,0.537,0.562,0.260,0.231,west-northwest,2.3,No
2015/03/29,00:50,0.555,0.341,0.585,0.537,0.562,0.260,0.233,northwest,1.7,No
2015/03/29,01:00,0.553,0.343,0.581,0.537,0.560,0.259,0.233,northwest,1.1,No
2015/03/29,01:10,0.553,0.341,0.581,0.537,0.562,0.259,0.232,northwest,1.7,No
2015/03/29,01:20,0.555,0.342,0.583,0.540,0.562,0.259,0.234,west-northwest,1.1,No
2015/03/29,01:30,0.552,0.340,0.582,0.538,0.562,0.259,0.232,west-northwest,0.5,No
2015/03/29,01:40,0.552,0.342,0.581,0.538,0.561,0.259,0.232,southwest,0.8,No
2015/03/29,01:50,0.552,0.340,0.583,0.537,0.562,0.259,0.232,west-southwest,1.3,No
2015/03/29,02:00,0.555,0.342,0.582,0.538,0.560,0.259,0.231,south,1.5,No
2015/03/29,02:10,0.553,0.341,0.582,0.537,0.560,0.261,0.233,south-southwest,0.8,No
2015/03/29,02:20,0.553,0.342,0.580,0.536,0.562,0.259,0.232,south-southwest,1.4,No
2015/03/29,02:30,0.553,0.342,0.583,0.539,0.563,0.260,0.232,south-southwest,3.3,No
2015/03/29,02:40,0.553,0.341,0.581,0.538,0.561,0.258,0.233,south-southwest,4.0,No
2015/03/29,02:50,0.553,0.342,0.581,0.535,0.562,0.258,0.232,southwest,4.2,No
2015/03/29,03:00,0.553,0.343,0.581,0.539,0.561,0.260,0.233,southwest,4.6,No
2015/03/29,03:10,0.555,0.343,0.583,0.538,0.561,0.259,0.232,southwest,3.4,No
2015/03/29,03:20,0.552,0.342,0.582,0.538,0.560,0.259,0.232,southwest,2.3,No
2015/03/29,03:30,0.552,0.341,0.582,0.538,0.561,0.259,0.233,south-southwest,1.1,No
2015/03/29,03:40,0.553,0.342,0.583,0.538,0.560,0.258,0.234,south,1.3,No
2015/03/29,03:50,0.553,0.343,0.582,0.539,0.558,0.259,0.234,south,2.2,No
2015/03/29,04:00,0.552,0.343,0.583,0.537,0.562,0.260,0.234,south-southwest,2.8,No
2015/03/29,04:10,0.552,0.343,0.581,0.536,0.561,0.259,0.233,southwest,2.2,No
2015/03/29,04:20,0.554,0.342,0.582,0.539,0.561,0.260,0.233,west-southwest,1.8,No
2015/03/29,04:30,0.552,0.343,0.583,0.539,0.562,0.260,0.233,south-southwest,1.0,No
2015/03/29,04:40,0.552,0.341,0.584,0.538,0.560,0.259,0.233,south,1.1,No
2015/03/29,04:50,0.555,0.341,0.584,0.539,0.563,0.261,0.233,south-southeast,1.4,No
2015/03/29,05:00,0.553,0.342,0.582,0.539,0.563,0.260,0.233,south,3.9,No
2015/03/29,05:10,0.553,0.343,0.584,0.538,0.563,0.260,0.233,south,4.5,No
2015/03/29,05:20,0.554,0.342,0.585,0.538,0.562,0.259,0.233,south,4.1,No
2015/03/29,05:30,0.555,0.343,0.584,0.539,0.561,0.261,0.234,south,3.1,No
2015/03/29,05:40,0.554,0.342,0.583,0.538,0.564,0.260,0.234,south-southwest,3.0,No
2015/03/29,05:50,0.552,0.343,0.583,0.538,0.563,0.258,0.234,south-southwest,3.7,No
2015/03/29,06:00,0.555,0.343,0.585,0.537,0.561,0.260,0.234,south,3.8,No
2015/03/29,06:10,0.555,0.343,0.582,0.540,0.564,0.261,0.233,south,3.0,No
2015/03/29,06:20,0.554,0.342,0.583,0.540,0.559,0.260,0.233,south,3.3,No
2015/03/29,06:30,0.553,0.343,0.585,0.537,0.560,0.259,0.233,south-southwest,3.9,No
2015/03/29,06:40,0.553,0.343,0.584,0.537,0.561,0.259,0.233,south-southwest,5.1,No
2015/03/29,06:50,0.551,0.341,0.580,0.540,0.561,0.259,0.233,south-southwest,6.7,No
2015/03/29,07:00,0.553,0.343,0.583,0.536,0.560,0.258,0.231,south-southwest,7.5,No
2015/03/29,07:10,0.553,0.343,0.584,0.538,0.563,0.260,0.232,south-southwest,7.9,No
2015/03/29,07:20,0.553,0.343,0.580,0.536,0.562,0.258,0.232,south-southwest,7.8,No
2015/03/29,07:30,0.553,0.342,0.583,0.535,0.561,0.259,0.231,south-southwest,6.9,No
2015/03/29,07:40,0.554,0.342,0.582,0.539,0.562,0.260,0.233,south-southwest,5.9,No
2015/03/29,07:50,0.552,0.341,0.579,0.535,0.560,0.260,0.231,south-southwest,5.2,No
2015/03/29,08:00,0.554,0.342,0.584,0.539,0.562,0.260,0.231,south-southwest,3.9,No
2015/03/29,08:10,0.551,0.338,0.582,0.534,0.560,0.260,0.233,southwest,3.9,No
2015/03/29,08:20,0.551,0.342,0.582,0.533,0.565,0.259,0.230,south-southwest,4.3,No
2015/03/29,08:30,0.554,0.340,0.584,0.538,0.561,0.261,0.233,south-southwest,3.3,No
2015/03/29,08:40,0.551,0.341,0.581,0.533,0.565,0.258,0.231,south-southwest,2.8,No
2015/03/29,08:50,0.552,0.339,0.582,0.533,0.558,0.259,0.231,south,3.0,No
2015/03/29,09:00,0.550,0.341,0.580,0.538,0.565,0.258,0.232,south,4.8,No
2015/03/29,09:10,0.551,0.342,0.583,0.534,0.560,0.261,0.232,south,4.5,No
2015/03/29,09:20,0.552,0.338,0.580,0.530,0.559,0.258,0.230,south-southwest,4.2,No
2015/03/29,09:30,0.549,0.343,0.583,0.540,0.563,0.259,0.233,south-southwest,4.5,No
2015/03/29,09:40,0.551,0.342,0.578,0.536,0.558,0.257,0.231,south,4.1,No
2015/03/29,09:50,0.547,0.339,0.586,0.533,0.566,0.258,0.232,south-southeast,5.2,No
2015/03/29,10:00,0.551,0.343,0.580,0.540,0.562,0.258,0.233,south-southeast,5.0,No
2015/03/29,10:10,0.552,0.340,0.583,0.537,0.556,0.258,0.232,south-southeast,4.5,No
2015/03/29,10:20,0.548,0.340,0.582,0.532,0.567,0.258,0.234,south-southeast,5.2,No
2015/03/29,10:30,0.547,0.342,0.582,0.541,0.562,0.258,0.232,south,5.3,No
2015/03/29,10:40,0.554,0.341,0.584,0.540,0.557,0.259,0.233,south,2.3,No
2015/03/29,10:50,0.550,0.341,0.578,0.533,0.564,0.258,0.233,south-southeast,5.2,No
2015/03/29,11:00,0.550,0.342,0.584,0.537,0.564,0.258,0.231,south,5.0,No
2015/03/29,11:10,0.555,0.340,0.578,0.542,0.559,0.258,0.233,south,4.3,No
2015/03/29,11:20,0.551,0.341,0.574,0.535,0.557,0.259,0.233,south,5.6,No
2015/03/29,11:30,0.546,0.343,0.581,0.531,0.564,0.257,0.232,south,6.2,No
2015/03/29,11:40,0.551,0.341,0.584,0.541,0.562,0.259,0.233,south,7.3,No
2015/03/29,11:50,0.555,0.339,0.577,0.540,0.558,0.258,0.231,south-southeast,8.2,No
2015/03/29,12:00,0.550,0.343,0.575,0.534,0.556,0.258,0.231,south,7.9,No
2015/03/29,12:10,0.551,0.341,0.581,0.535,0.567,0.258,0.233,south,8.1,No
2015/03/29,12:20,0.557,0.341,0.580,0.541,0.562,0.257,0.231,south-southeast,6.2,No
2015/03/29,12:30,0.551,0.342,0.576,0.535,0.559,0.259,0.233,south-southeast,5.8,No
2015/03/29,12:40,0.558,0.340,0.586,0.540,0.569,0.259,0.231,south-southeast,3.9,No
2015/03/29,12:50,0.554,0.343,0.584,0.541,0.564,0.258,0.233,south,4.5,No
2015/03/29,13:00,0.551,0.340,0.578,0.536,0.564,0.258,0.233,south,5.2,No
2015/03/29,13:10,0.556,0.344,0.584,0.540,0.567,0.257,0.233,south,5.6,No
2015/03/29,13:20,0.550,0.342,0.581,0.538,0.558,0.257,0.233,south-southeast,4.2,No
2015/03/29,13:30,0.556,0.342,0.581,0.538,0.565,0.256,0.232,south,4.4,No
2015/03/29,13:40,0.552,0.341,0.586,0.542,0.562,0.258,0.233,south,4.3,No
2015/03/29,13:50,0.556,0.342,0.580,0.540,0.563,0.258,0.233,south-southwest,3.5,No
2015/03/29,14:00,0.551,0.342,0.586,0.542,0.565,0.259,0.232,south,4.8,No
2015/03/29,14:10,0.554,0.340,0.580,0.538,0.563,0.259,0.233,south,4.8,No
2015/03/29,14:20,0.555,0.343,0.586,0.539,0.566,0.258,0.233,south,3.1,No
2015/03/29,14:30,0.555,0.341,0.581,0.540,0.561,0.259,0.233,south,3.4,No
2015/03/29,14:40,0.555,0.342,0.588,0.540,0.566,0.258,0.232,south,4.9,No
2015/03/29,14:50,0.555,0.342,0.580,0.539,0.562,0.259,0.234,south,4.9,No
2015/03/29,15:00,0.553,0.342,0.587,0.537,0.568,0.259,0.233,south,3.5,No
2015/03/29,15:10,0.554,0.342,0.579,0.542,0.561,0.258,0.232,east-southeast,0.6,No
2015/03/29,15:20,0.552,0.341,0.584,0.538,0.567,0.258,0.234,south-southeast,0.8,No
2015/03/29,15:30,0.555,0.342,0.580,0.543,0.561,0.258,0.232,west-southwest,0.9,No
2015/03/29,15:40,0.551,0.341,0.584,0.537,0.565,0.258,0.233,northwest,1.3,No
2015/03/29,15:50,0.556,0.343,0.582,0.540,0.562,0.257,0.232,-,CALM,No
2015/03/29,16:00,0.550,0.340,0.583,0.539,0.565,0.260,0.232,north-northeast,0.7,No
2015/03/29,16:10,0.554,0.343,0.580,0.541,0.565,0.257,0.232,east-northeast,0.6,No
2015/03/29,16:20,0.552,0.341,0.585,0.537,0.565,0.259,0.233,southeast,1.2,No
2015/03/29,16:30,0.553,0.340,0.583,0.538,0.567,0.259,0.233,-,CALM,No
2015/03/29,16:40,0.554,0.343,0.583,0.541,0.562,0.258,0.232,-,CALM,No
2015/03/29,16:50,0.551,0.340,0.584,0.537,0.566,0.258,0.232,north-northwest,1.0,No
2015/03/29,17:00,0.556,0.340,0.581,0.542,0.563,0.258,0.232,north,1.9,No
2015/03/29,17:10,0.551,0.340,0.584,0.537,0.563,0.258,0.232,north,3.2,No
2015/03/29,17:20,0.555,0.341,0.581,0.540,0.562,0.259,0.233,north,2.7,No
2015/03/29,17:30,0.554,0.343,0.585,0.541,0.561,0.258,0.233,north,4.2,No
2015/03/29,17:40,0.553,0.342,0.584,0.538,0.564,0.259,0.232,north,6.4,No
2015/03/29,17:50,0.555,0.340,0.581,0.541,0.561,0.258,0.232,north-northwest,6.1,No
2015/03/29,18:00,0.551,0.342,0.583,0.538,0.562,0.258,0.232,north-northwest,4.7,No
2015/03/29,18:10,0.556,0.341,0.581,0.538,0.564,0.258,0.231,northeast,1.2,No
2015/03/29,18:20,0.552,0.343,0.582,0.542,0.562,0.259,0.232,north,2.5,No
2015/03/29,18:30,0.553,0.341,0.584,0.538,0.564,0.258,0.232,north-northwest,1.7,No
2015/03/29,18:40,0.556,0.341,0.580,0.541,0.561,0.258,0.232,north,2.2,No
2015/03/29,18:50,0.552,0.343,0.587,0.537,0.561,0.258,0.233,north,5.1,No
2015/03/29,19:00,0.553,0.342,0.585,0.538,0.564,0.258,0.233,north,5.8,No
2015/03/29,19:10,0.554,0.341,0.581,0.540,0.563,0.257,0.233,north-northwest,6.2,No
2015/03/29,19:20,0.554,0.342,0.586,0.538,0.562,0.259,0.232,north,7.6,No
2015/03/29,19:30,0.555,0.341,0.582,0.540,0.561,0.257,0.232,north-northwest,7.2,No
2015/03/29,19:40,0.550,0.341,0.586,0.540,0.561,0.258,0.232,north-northwest,8.9,No
2015/03/29,19:50,0.556,0.342,0.583,0.538,0.564,0.259,0.232,north-northwest,10.1,No
2015/03/29,20:00,0.555,0.340,0.582,0.541,0.563,0.259,0.233,north-northwest,9.8,No
2015/03/29,20:10,0.553,0.342,0.585,0.538,0.561,0.259,0.232,north,10.1,No
2015/03/29,20:20,0.557,0.342,0.582,0.540,0.564,0.259,0.232,north-northwest,9.0,No
2015/03/29,20:30,0.550,0.343,0.583,0.541,0.563,0.259,0.232,north-northwest,7.8,No
2015/03/29,20:40,0.555,0.341,0.586,0.537,0.563,0.259,0.233,north-northwest,7.5,No
2015/03/29,20:50,0.555,0.341,0.582,0.541,0.562,0.259,0.232,north,7.7,No
2015/03/29,21:00,0.552,0.343,0.586,0.539,0.561,0.259,0.232,north-northwest,6.7,No
2015/03/29,21:10,0.556,0.341,0.581,0.540,0.564,0.259,0.232,north,6.4,No
2015/03/29,21:20,0.552,0.341,0.583,0.540,0.560,0.258,0.233,north,6.1,No
2015/03/29,21:30,0.556,0.342,0.584,0.538,0.563,0.260,0.231,north,5.8,No
2015/03/29,21:40,0.551,0.340,0.582,0.541,0.561,0.259,0.232,north,6.0,No
2015/03/29,21:50,0.553,0.343,0.584,0.538,0.562,0.258,0.233,north,4.0,No
2015/03/29,22:00,0.553,0.343,0.582,0.539,0.566,0.258,0.232,north,4.9,No
2015/03/29,22:10,0.552,0.341,0.588,0.538,0.564,0.259,0.233,north,4.5,No
2015/03/29,22:20,0.554,0.342,0.581,0.538,0.564,0.259,0.232,north-northwest,2.4,No
2015/03/29,22:30,0.551,0.340,0.582,0.542,0.563,0.258,0.233,north,4.7,No
2015/03/29,22:40,0.556,0.342,0.584,0.540,0.562,0.260,0.232,north,3.5,No
2015/03/29,22:50,0.553,0.341,0.580,0.539,0.565,0.257,0.232,north,5.2,No
2015/03/29,23:00,0.553,0.340,0.583,0.541,0.562,0.259,0.232,north,4.1,No
2015/03/29,23:10,0.554,0.343,0.580,0.538,0.562,0.259,0.233,north,5.3,No
2015/03/29,23:20,0.554,0.341,0.584,0.540,0.561,0.259,0.233,north,4.3,No
2015/03/29,23:30,0.555,0.343,0.585,0.540,0.562,0.259,0.232,north-northwest,3.7,No
2015/03/29,23:40,0.553,0.343,0.581,0.539,0.564,0.259,0.232,north-northwest,3.7,No
2015/03/29,23:50,0.555,0.344,0.585,0.539,0.560,0.259,0.234,north-northwest,3.3,No
